Regional Weather Roundup
Issued by NWS

Home | Current Version | Previous Version | Text Only | Print | Product List | Glossary Off
Versions: 1 2 3 4 5 6 7 8 9 10 11 12 13 14 15 16 17 18 19 20 21 22 23 24 25 26 27 28 29 30 31 32 33 34 35 36 37 38 39 40 41 42 43 44 45 46 47 48 49 50

000
ASUS43 KTOP 220659
RWRKS

WEATHER ROUNDUP FOR KANSAS
NATIONAL WEATHER SERVICE GOODLAND KS
100 AM CST SUN JAN 22 2017

NOTE:  "FAIR" INDICATES FEW OR NO CLOUDS BELOW 12,000 FEET WITH NO
SIGNIFICANT WEATHER AND/OR OBSTRUCTIONS TO VISIBILITY.

KSZ001>006-013>018-027>032-041>047-220800-
NORTHWEST KANSAS

CITY           SKY/WX    TMP DP  RH WIND       PRES   REMARKS
GOODLAND       CLOUDY    28  25  88 NW8       29.64R
HAYS           PTCLDY    38  35  89 N12       29.57R WCI  30
HILL CITY      PTCLDY    34  32  92 N10       29.61R WCI  26
RUSSELL        MOCLDY    37  34  89 N8        29.54R
$$

KSZ061>065-074>080-084>089-220800-
SOUTHWEST KANSAS

CITY           SKY/WX    TMP DP  RH WIND       PRES   REMARKS
DODGE CITY     CLOUDY    41  38  89 N18       29.53R
ELKHART          N/A     38  31  76 NW15        N/A  WCI  29
GARDEN CITY    CLOUDY    39  37  92 N15       29.56R WCI  31
GREAT BEND     LGT RAIN  42  39  89 N13       29.53R
LIBERAL        CLOUDY    41  36  81 N24       29.53R
$$

KSZ066>073-081>083-090>101-220800-
SOUTHEAST KANSAS

CITY           SKY/WX    TMP DP  RH WIND       PRES   REMARKS
CHANUTE        CLOUDY    49  46  90 NE10      29.45S
COFFEYVILLE    CLOUDY    50  46  86 NE8       29.41F
HUTCHINSON     CLOUDY    45  43  93 N15       29.48R
MEDICINE LODGE   N/A     43  42  97 N10       29.46R
PARSONS        CLOUDY    50  45  83 NE6       29.43S
WICHITA INTL   CLOUDY    48  43  82 NE14      29.45R
WICHITA JABRA  HVY RAIN  45  43  93 NE10      29.45R FOG
WICHITA MCCONL DRIZZLE   48  43  81 NE13      29.44R
WINFIELD       CLOUDY    49  43  80 NE7       29.42S
$$

KSZ007>012-019>026-033>040-048>060-102>105-220800-
NORTHEAST KANSAS

CITY           SKY/WX    TMP DP  RH WIND       PRES   REMARKS
CONCORDIA      PTCLDY    36  35  96 N7        29.55R
EMPORIA        CLOUDY    45  43  93 NE8       29.49R
LAWRENCE       CLOUDY    46  44  93 N3        29.52S
MANHATTAN      CLOUDY    45  41  86 NE3       29.52R
OLATHE IND     CLOUDY    46  44  93 NE5       29.51S
OLATHE EXE     CLOUDY    46  44  93 NE7       29.51S
SALINA           N/A    N/A N/A N/A MISG        N/A
TOPEKA BILLARD CLOUDY    45  42  89 N3        29.52R
TOPEKA FORBES  CLOUDY    47  44  90 N5        29.52R
$$



USA.gov is the U.S. government's official web portal to all federal, state and local government web resources and services.